Hourly Data Report for November 03, 2019

All times are specified in Local Standard Time (LST). Add 1 hour to adjust for Daylight Saving Time where and when it is observed.

SATURNA ISLAND CS
BRITISH COLUMBIA
Current Station Operator: ECCC - MSC

48°47'02.067" N
123°02'41.082" W
24.40 m
1017101
71473
WEZ

Download Data

Hourly Data (November 2019)
Hourly Data Report for November 3, 2019
TIME Temp Definition
°C
Dew Point Definition
°C
Rel Hum Definition
%
Wind Dir Definition
10's deg

Wind Spd Definition
km/h
Visibility Definition
km
Stn Press Definition
kPa
Hmdx Definition


Wind Chill Definition


Weather Definition


00:00 8.1 7.2 94 4 2   102.08     LegendNANA
01:00 8.4 7.4 93 2 2   102.05     LegendNANA
02:00 8.6 7.8 95 33 2   102.03     LegendNANA
03:00 8.6 7.8 95 29 1   102.05     LegendNANA
04:00 8.3 7.6 95 4 13   102.01     LegendNANA
05:00 8.0 7.3 95 3 10   102.02     LegendNANA
06:00 7.7 6.9 95 1 11   102.03     LegendNANA
07:00 7.4 6.5 94 2 6   102.02     LegendNANA
08:00 7.6 6.6 93 1 5   102.07     LegendNANA
09:00 8.3 6.6 89 4 4   102.07     LegendNANA
10:00 9.5 5.8 77 3 6   102.12     LegendNANA
11:00 10.5 4.6 67 5 8   102.13     LegendNANA
12:00 9.6 4.1 68 8 2   102.08     LegendNANA
13:00 9.3 5.2 75 18 4   102.02     LegendNANA
14:00 9.1 5.1 76 18 2   101.98     LegendNANA
15:00 9.7 6.2 79   0   101.96     LegendNANA
16:00 9.4 6.2 80 0 1   101.95     LegendNANA
17:00 8.1 6.2 88 24 7   101.92     LegendNANA
18:00 8.1 6.5 90 28 3   101.94     LegendNANA
19:00 8.4 7.3 93 27 3   101.92     LegendNANA
20:00 8.8 7.7 93 25 2   101.91     LegendNANA
21:00 9.1 7.6 91 23 7   101.96     LegendNANA
22:00 9.1 7.7 91 23 9   101.97     LegendNANA
23:00 9.2 7.7 90 34 3   102.00     LegendNANA

Notes on Data Quality.

Legend

  • E = Estimated
  • M = Missing
  • NA = Not Available
Date modified: